M I D A S
Marine Information and Data Acquisition System
Tripno 1869 of the Zeeleeuw from 2010-04-27 06:24:28 to 2010-04-27 13:59:42
Back to CruiseResearch ActivitiesStationsMapUnderway DataData graphs

EquipmentUnitsComments
TimeDGPSUTC
LatitudeDGPSDM.mWGS84
LongitudeDGPSDM.mWGS84
SpeedMeteo Stationm/sRelative wind speed
DirectionMeteo StationdegRelative wind direction
TemperatureMeteo Stationdeg CelciusAir temperature
PressureMeteo StationPaAtmospheric pressure
HumidityMeteo Station%Relative humidity
Missing or incorrect values are displayed as -999
Metereological data collected by the RV Zeeleeuw from 2010-04-27 05:51:42 to 2010-04-27 14:10:25
                                                                                    Next 1000 lines
Time Latitude Longitude Speed Direction Temperature Pressure Humidity
2010-04-27 05:51:52 51°13.663 2°55.961 -999 13 7.8 102750 40
2010-04-27 05:51:57 51°13.663 2°55.961 -999 9 7.8 102750 40
2010-04-27 05:52:03 51°13.663 2°55.961 -999 358 7.9 102750 40
2010-04-27 05:52:08 51°13.662 2°55.961 -999 356 7.9 102750 40
2010-04-27 05:52:12 51°13.662 2°55.96 -999 355 7.9 102750 40
2010-04-27 05:52:17 51°13.662 2°55.96 -999 2 7.9 102750 40
2010-04-27 05:52:23 51°13.662 2°55.96 -999 8 7.9 102750 40
2010-04-27 05:52:28 51°13.662 2°55.96 -999 13 7.9 102750 40
2010-04-27 05:52:33 51°13.662 2°55.96 -999 5 7.9 102750 40
2010-04-27 05:52:37 51°13.662 2°55.96 -999 5 7.9 102750 40
2010-04-27 05:52:42 51°13.662 2°55.96 -999 5 7.9 102750 39
2010-04-27 05:52:47 51°13.662 2°55.96 -999 5 7.9 102750 39
2010-04-27 05:52:52 51°13.662 2°55.96 -999 5 7.9 102750 40
2010-04-27 05:52:57 51°13.662 2°55.96 -999 5 7.9 102750 40
2010-04-27 05:53:02 51°13.662 2°55.96 -999 5 7.9 102750 40
2010-04-27 05:53:07 51°13.662 2°55.96 -999 5 7.9 102750 40
2010-04-27 05:53:12 51°13.662 2°55.96 -999 5 7.9 102740 40
2010-04-27 05:53:17 51°13.662 2°55.961 -999 5 7.9 102740 40
2010-04-27 05:53:22 51°13.662 2°55.961 -999 5 7.9 102750 40
2010-04-27 05:53:27 51°13.662 2°55.961 -999 7 7.9 102750 40
2010-04-27 05:53:32 51°13.662 2°55.961 -999 14 7.9 102740 40
2010-04-27 05:53:38 51°13.662 2°55.961 -999 11 7.9 102740 40
2010-04-27 05:53:42 51°13.662 2°55.96 -999 5 8 102750 40
2010-04-27 05:53:47 51°13.662 2°55.96 -999 351 8 102750 40
2010-04-27 05:53:52 51°13.662 2°55.96 -999 356 8 102750 40
2010-04-27 05:53:58 51°13.662 2°55.96 -999 2 8 102750 40
2010-04-27 05:54:02 51°13.662 2°55.96 -999 2 8 102750 40
2010-04-27 05:54:07 51°13.662 2°55.96 -999 2 8 102750 40
2010-04-27 05:54:12 51°13.662 2°55.96 -999 5 8 102750 40
2010-04-27 05:54:17 51°13.662 2°55.96 -999 5 8 102750 40
2010-04-27 05:54:22 51°13.662 2°55.96 -999 5 8 102750 40
2010-04-27 05:54:27 51°13.662 2°55.96 -999 5 8 102750 40
2010-04-27 05:54:33 51°13.662 2°55.96 -999 7 8 102750 40
2010-04-27 05:54:37 51°13.662 2°55.96 -999 13 8 102750 40
2010-04-27 05:54:43 51°13.662 2°55.96 -999 5 8 102750 40
2010-04-27 05:54:48 51°13.662 2°55.96 -999 5 8 102750 40
2010-04-27 05:54:53 51°13.662 2°55.96 -999 355 8 102750 40
2010-04-27 05:54:57 51°13.662 2°55.96 -999 352 8 102750 40
2010-04-27 05:55:03 51°13.662 2°55.96 -999 353 8 102750 40
2010-04-27 05:55:08 51°13.662 2°55.96 -999 3 8 102750 40
2010-04-27 05:55:13 51°13.662 2°55.96 -999 3 8 102750 40
2010-04-27 05:55:17 51°13.662 2°55.96 -999 356 8 102750 40
2010-04-27 05:55:22 51°13.662 2°55.96 -999 354 8 102750 39
2010-04-27 05:55:27 51°13.662 2°55.96 -999 348 8 102750 39
2010-04-27 05:55:32 51°13.662 2°55.96 -999 349 8 102740 40
2010-04-27 05:55:37 51°13.662 2°55.96 -999 3 8 102740 40
2010-04-27 05:55:42 51°13.662 2°55.96 -999 3 8 102750 40
2010-04-27 05:55:47 51°13.662 2°55.96 -999 3 8 102750 40
2010-04-27 05:55:52 51°13.662 2°55.96 -999 3 8 102750 40
2010-04-27 05:55:58 51°13.662 2°55.96 -999 3 8 102750 40
2010-04-27 05:56:02 51°13.662 2°55.96 -999 3 8 102750 40
2010-04-27 05:56:07 51°13.662 2°55.96 -999 354 8 102750 40
2010-04-27 05:56:12 51°13.662 2°55.96 -999 358 8 102750 40
2010-04-27 05:56:18 51°13.662 2°55.96 -999 358 8 102750 40
2010-04-27 05:56:22 51°13.663 2°55.96 -999 359 8 102750 40
2010-04-27 05:56:27 51°13.663 2°55.96 -999 7 8 102750 40
2010-04-27 05:56:32 51°13.663 2°55.96 -999 354 8 102740 40
2010-04-27 05:56:37 51°13.662 2°55.96 -999 352 8 102740 40
2010-04-27 05:56:42 51°13.663 2°55.96 -999 352 8 102740 40
2010-04-27 05:56:47 51°13.663 2°55.96 -999 352 8 102740 40
2010-04-27 05:56:52 51°13.662 2°55.96 -999 352 8 102750 40
2010-04-27 05:56:57 51°13.663 2°55.96 -999 355 8 102750 40
2010-04-27 05:57:02 51°13.662 2°55.96 -999 355 8 102740 40
2010-04-27 05:57:07 51°13.662 2°55.959 -999 355 8 102740 40
2010-04-27 05:57:12 51°13.663 2°55.959 -999 1 8 102750 40
2010-04-27 05:57:17 51°13.663 2°55.959 -999 358 8 102750 40
2010-04-27 05:57:23 51°13.663 2°55.959 -999 358 8 102750 40
2010-04-27 05:57:27 51°13.663 2°55.959 -999 350 8 102750 40
2010-04-27 05:57:33 51°13.663 2°55.959 -999 357 8.1 102750 40
2010-04-27 05:57:37 51°13.663 2°55.959 -999 357 8.1 102750 40
2010-04-27 05:57:42 51°13.663 2°55.959 -999 359 8.1 102750 40
2010-04-27 05:57:48 51°13.663 2°55.959 -999 360 8.1 102750 40
2010-04-27 05:57:53 51°13.663 2°55.959 -999 360 8.1 102750 40
2010-04-27 05:57:57 51°13.663 2°55.959 -999 359 8.1 102750 40
2010-04-27 05:58:03 51°13.663 2°55.959 -999 356 8.1 102750 39
2010-04-27 05:58:07 51°13.663 2°55.959 -999 358 8.1 102750 39
2010-04-27 05:58:13 51°13.663 2°55.959 -999 358 8.1 102750 40
2010-04-27 05:58:17 51°13.663 2°55.959 -999 358 8.1 102750 40
2010-04-27 05:58:22 51°13.663 2°55.959 -999 358 8.1 102750 40
2010-04-27 05:58:27 51°13.662 2°55.959 -999 358 8.1 102750 40
2010-04-27 05:58:32 51°13.663 2°55.959 -999 351 8.1 102750 40
2010-04-27 05:58:38 51°13.662 2°55.959 -999 358 8.1 102750 40
2010-04-27 05:58:42 51°13.663 2°55.959 -999 358 8 102750 40
2010-04-27 05:58:47 51°13.663 2°55.959 -999 358 8 102750 40
2010-04-27 05:58:52 51°13.663 2°55.959 -999 358 8.1 102750 40
2010-04-27 05:58:58 51°13.663 2°55.959 -999 4 8.1 102750 40
2010-04-27 05:59:02 51°13.663 2°55.959 -999 4 8 102750 40
2010-04-27 05:59:07 51°13.663 2°55.96 -999 6 8 102750 40
2010-04-27 05:59:12 51°13.663 2°55.96 -999 4 8.1 102750 40
2010-04-27 05:59:18 51°13.663 2°55.96 -999 357 8.1 102750 40
2010-04-27 05:59:22 51°13.663 2°55.96 -999 351 8 102750 40
2010-04-27 05:59:27 51°13.663 2°55.96 -999 353 8 102750 40
2010-04-27 05:59:32 51°13.663 2°55.96 -999 -999 8 102750 40
2010-04-27 05:59:37 51°13.663 2°55.96 -999 356 8 102750 40
2010-04-27 05:59:42 51°13.663 2°55.96 -999 351 8 102750 40
2010-04-27 05:59:47 51°13.663 2°55.96 -999 348 8 102750 40
2010-04-27 05:59:52 51°13.663 2°55.96 -999 353 8 102740 40
2010-04-27 05:59:57 51°13.663 2°55.96 -999 351 8 102740 40
2010-04-27 06:00:03 51°13.663 2°55.96 -999 347 8 102750 40
2010-04-27 06:00:08 51°13.663 2°55.96 -999 353 8 102750 40
2010-04-27 06:00:13 51°13.663 2°55.96 -999 356 8 102750 40
2010-04-27 06:00:17 51°13.663 2°55.96 -999 350 8 102750 40
2010-04-27 06:00:23 51°13.663 2°55.96 -999 348 8 102750 40
2010-04-27 06:00:28 51°13.663 2°55.96 -999 356 8 102750 40
2010-04-27 06:00:33 51°13.663 2°55.96 -999 353 8 102750 40
2010-04-27 06:00:37 51°13.663 2°55.96 -999 344 8 102750 40
2010-04-27 06:00:43 51°13.663 2°55.96 -999 352 8.1 102750 38
2010-04-27 06:00:48 51°13.663 2°55.96 -999 356 8.1 102750 38
2010-04-27 06:00:52 51°13.663 2°55.96 -999 356 8 102750 40
2010-04-27 06:00:57 51°13.663 2°55.96 -999 351 8 102750 40
2010-04-27 06:01:02 51°13.663 2°55.96 -999 349 8.1 102750 40
2010-04-27 06:01:07 51°13.663 2°55.96 -999 283 8.1 102750 40
2010-04-27 06:01:13 51°13.663 2°55.96 -999 349 8 102750 40
2010-04-27 06:01:18 51°13.663 2°55.96 -999 351 8 102750 40
2010-04-27 06:01:22 51°13.663 2°55.96 -999 347 8.1 102740 40
2010-04-27 06:01:27 51°13.663 2°55.96 -999 348 8.1 102740 40
2010-04-27 06:01:32 51°13.663 2°55.96 -999 352 8.1 102750 40
2010-04-27 06:01:38 51°13.663 2°55.96 -999 352 8.1 102750 40
2010-04-27 06:01:42 51°13.663 2°55.961 -999 350 8.1 102750 40
2010-04-27 06:01:47 51°13.663 2°55.961 -999 344 8.1 102750 40
2010-04-27 06:01:52 51°13.663 2°55.961 -999 343 8.1 102750 40
2010-04-27 06:01:58 51°13.663 2°55.96 -999 345 8.1 102750 40
2010-04-27 06:02:02 51°13.663 2°55.96 -999 347 8.1 102750 40
2010-04-27 06:02:07 51°13.663 2°55.96 -999 348 8.1 102750 40
2010-04-27 06:02:12 51°13.663 2°55.96 -999 357 8.1 102750 40
2010-04-27 06:02:17 51°13.663 2°55.96 0.1 341 8.1 102750 40
2010-04-27 06:02:22 51°13.663 2°55.96 0.1 347 8 102750 40
2010-04-27 06:02:27 51°13.663 2°55.96 0.1 350 8 102750 40
2010-04-27 06:02:32 51°13.663 2°55.96 -999 351 8.1 102750 40
2010-04-27 06:02:37 51°13.663 2°55.96 -999 351 8.1 102750 40
2010-04-27 06:02:43 51°13.663 2°55.96 -999 349 8.1 102750 40
2010-04-27 06:02:48 51°13.663 2°55.96 -999 352 8.1 102750 40
2010-04-27 06:02:52 51°13.663 2°55.96 -999 350 8.1 102750 40
2010-04-27 06:02:57 51°13.663 2°55.96 -999 350 8.1 102750 40
2010-04-27 06:03:02 51°13.663 2°55.96 -999 350 8.1 102750 40
2010-04-27 06:03:08 51°13.663 2°55.96 -999 350 8.1 102750 40
2010-04-27 06:03:13 51°13.663 2°55.96 -999 350 8.1 102750 40
2010-04-27 06:03:17 51°13.663 2°55.96 -999 350 8.1 102750 40
2010-04-27 06:03:23 51°13.663 2°55.96 -999 350 -999 -999 -999
2010-04-27 06:03:27 51°13.663 2°55.96 -999 -999 -999 -999 -999
2010-04-27 06:03:32 51°13.663 2°55.96 -999 -999 -999 -999 -999
2010-04-27 06:03:37 51°13.663 2°55.96 -999 -999 -999 -999 -999
2010-04-27 06:03:42 51°13.663 2°55.96 -999 -999 -999 -999 -999
2010-04-27 06:03:47 51°13.663 2°55.96 -999 264 -999 -999 -999
2010-04-27 06:03:53 51°13.663 2°55.96 -999 -999 -999 -999 -999
2010-04-27 06:03:58 51°13.663 2°55.96 -999 351 -999 -999 -999
2010-04-27 06:04:02 51°13.663 2°55.96 -999 351 7.9 -999 22
2010-04-27 06:04:07 51°13.663 2°55.96 -999 347 7.9 -999 22
2010-04-27 06:04:12 51°13.663 2°55.96 -999 348 8.1 -999 41
2010-04-27 06:04:18 51°13.663 2°55.96 -999 350 8.1 -999 41
2010-04-27 06:04:22 51°13.663 2°55.96 -999 349 8 102750 40
2010-04-27 06:04:27 51°13.662 2°55.959 -999 353 8 102750 40
2010-04-27 06:04:32 51°13.662 2°55.959 -999 351 8.1 102750 40
2010-04-27 06:04:37 51°13.662 2°55.959 -999 359 8.1 102750 40
2010-04-27 06:04:42 51°13.662 2°55.959 -999 3 8.1 102750 40
2010-04-27 06:04:47 51°13.662 2°55.959 0.1 344 8.1 102750 40
2010-04-27 06:04:52 51°13.662 2°55.959 0.1 351 8.1 102750 40
2010-04-27 06:04:57 51°13.662 2°55.959 0.1 346 8.1 102750 40
2010-04-27 06:05:02 51°13.662 2°55.959 0.2 349 8.1 102750 39
2010-04-27 06:05:07 51°13.662 2°55.959 0.1 353 8.1 102750 39
2010-04-27 06:05:12 51°13.663 2°55.959 -999 353 8.1 102750 40
2010-04-27 06:05:17 51°13.662 2°55.959 -999 351 8.1 102750 40
2010-04-27 06:05:22 51°13.662 2°55.959 -999 358 8 102750 40
2010-04-27 06:05:27 51°13.662 2°55.959 0.3 352 8 102750 40
2010-04-27 06:05:32 51°13.662 2°55.959 0.2 352 8.1 102750 40
2010-04-27 06:05:36 51°13.662 2°55.959 0.1 3 8.1 102750 40
2010-04-27 06:05:41 51°13.662 2°55.959 -999 359 8.1 102750 40
2010-04-27 06:05:47 51°13.662 2°55.959 -999 355 8.1 102750 40
2010-04-27 06:05:52 51°13.662 2°55.959 -999 6 8.1 102750 40
2010-04-27 06:05:57 51°13.662 2°55.959 -999 357 8.1 102750 40
2010-04-27 06:06:02 51°13.662 2°55.959 -999 355 8.1 102750 40
2010-04-27 06:06:07 51°13.662 2°55.959 -999 352 8.1 102750 40
2010-04-27 06:06:12 51°13.662 2°55.959 -999 9 8.1 102750 40
2010-04-27 06:06:17 51°13.662 2°55.959 0.3 18 8.1 102750 40
2010-04-27 06:06:22 51°13.662 2°55.959 0.3 18 8.1 102750 40
2010-04-27 06:06:27 51°13.662 2°55.959 0.1 16 8.1 102750 40
2010-04-27 06:06:32 51°13.662 2°55.959 0.1 16 8.1 102750 38
2010-04-27 06:06:37 51°13.663 2°55.959 -999 11 8.1 102750 38
2010-04-27 06:06:42 51°13.662 2°55.959 -999 16 8.1 102750 40
2010-04-27 06:06:47 51°13.662 2°55.959 -999 17 8.1 102750 40
2010-04-27 06:06:52 51°13.662 2°55.959 -999 18 8.1 102750 40
2010-04-27 06:06:57 51°13.662 2°55.959 -999 4 8.1 102750 40
2010-04-27 06:07:02 51°13.662 2°55.959 -999 3 8.1 102750 40
2010-04-27 06:07:07 51°13.662 2°55.959 -999 3 8.1 102750 40
2010-04-27 06:07:11 51°13.662 2°55.959 -999 353 8.1 102750 40
2010-04-27 06:07:17 51°13.662 2°55.959 -999 352 8.1 102750 40
2010-04-27 06:07:21 51°13.662 2°55.959 -999 353 8.1 102750 40
2010-04-27 06:07:26 51°13.662 2°55.959 -999 1 8.1 102750 40
2010-04-27 06:07:31 51°13.662 2°55.959 -999 356 8.1 102750 40
2010-04-27 06:07:36 51°13.662 2°55.959 -999 351 8.1 102750 40
2010-04-27 06:07:41 51°13.662 2°55.959 -999 351 8 102750 40
2010-04-27 06:07:46 51°13.662 2°55.959 0.3 348 8 102750 40
2010-04-27 06:07:51 51°13.662 2°55.959 0.2 356 8 102750 40
2010-04-27 06:07:57 51°13.662 2°55.959 0.1 360 8 102750 40
2010-04-27 06:08:01 51°13.662 2°55.959 -999 360 8.1 102750 40
2010-04-27 06:08:05 51°13.662 2°55.959 -999 357 8.1 102750 40
2010-04-27 06:08:10 51°13.662 2°55.959 -999 357 8.1 102750 40
2010-04-27 06:08:16 51°13.662 2°55.959 -999 9 8.1 102750 40
2010-04-27 06:08:21 51°13.662 2°55.959 -999 13 8.1 102750 40
2010-04-27 06:08:25 51°13.662 2°55.959 -999 13 8.1 102750 40
2010-04-27 06:08:30 51°13.662 2°55.959 -999 13 8.1 102750 40
2010-04-27 06:08:36 51°13.662 2°55.959 -999 8 8.1 102750 40
2010-04-27 06:08:42 51°13.662 2°55.959 -999 360 8.1 102750 40
2010-04-27 06:08:45 51°13.662 2°55.959 -999 16 8.1 102750 40
2010-04-27 06:08:50 51°13.662 2°55.959 -999 357 8.1 102750 40
2010-04-27 06:08:56 51°13.662 2°55.959 -999 6 8.1 102750 40
2010-04-27 06:09:01 51°13.662 2°55.959 -999 7 8.1 102750 40
2010-04-27 06:09:06 51°13.662 2°55.959 -999 14 8.1 102750 40
2010-04-27 06:09:11 51°13.662 2°55.959 -999 13 8.1 102750 39
2010-04-27 06:09:16 51°13.662 2°55.959 -999 13 8.1 102750 39
2010-04-27 06:09:21 51°13.662 2°55.959 -999 13 8.1 102750 40
2010-04-27 06:09:26 51°13.662 2°55.959 -999 9 8.1 102750 40
2010-04-27 06:09:31 51°13.662 2°55.959 -999 8 8.1 102750 40
2010-04-27 06:09:36 51°13.662 2°55.959 -999 7 8.1 102750 40
2010-04-27 06:09:41 51°13.662 2°55.959 -999 2 8.1 102750 40
2010-04-27 06:09:46 51°13.662 2°55.959 -999 358 8.1 102750 40
2010-04-27 06:09:51 51°13.662 2°55.959 -999 357 8.1 102750 40
2010-04-27 06:09:57 51°13.662 2°55.959 -999 357 8.1 102750 40
2010-04-27 06:10:01 51°13.662 2°55.959 -999 2 8.1 102750 40
2010-04-27 06:10:06 51°13.662 2°55.959 -999 6 8.1 102750 40
2010-04-27 06:10:12 51°13.662 2°55.959 -999 5 8.1 102750 40
2010-04-27 06:10:16 51°13.662 2°55.959 -999 5 8.1 102750 40
2010-04-27 06:10:21 51°13.662 2°55.959 -999 5 8.1 102750 40
2010-04-27 06:10:25 51°13.662 2°55.959 -999 359 8.1 102750 40
2010-04-27 06:10:31 51°13.662 2°55.959 -999 357 8.2 102750 40
2010-04-27 06:10:35 51°13.662 2°55.959 -999 348 8.2 102750 40
2010-04-27 06:10:40 51°13.662 2°55.959 -999 351 8.2 102750 40
2010-04-27 06:10:45 51°13.662 2°55.959 0.1 -999 8.2 102750 40
2010-04-27 06:10:49 51°13.662 2°55.959 0.1 6 8.2 102750 40
2010-04-27 06:10:54 51°13.662 2°55.959 0.1 9 8.2 102750 40
2010-04-27 06:10:59 51°13.662 2°55.959 -999 -999 8.2 102750 40
2010-04-27 06:11:05 51°13.662 2°55.959 -999 15 8.2 102750 40
2010-04-27 06:11:09 51°13.662 2°55.959 -999 14 8.2 102750 40
2010-04-27 06:11:14 51°13.662 2°55.959 -999 7 8.2 102750 40
2010-04-27 06:11:19 51°13.662 2°55.959 -999 -999 8.2 102750 40
2010-04-27 06:11:24 51°13.662 2°55.959 -999 357 8.2 102750 40
2010-04-27 06:11:29 51°13.662 2°55.959 0.1 357 8.2 102750 40
2010-04-27 06:11:33 51°13.662 2°55.959 0.1 354 8.2 102750 40
2010-04-27 06:11:38 51°13.662 2°55.959 0.1 353 8.2 102750 40
2010-04-27 06:11:45 51°13.662 2°55.959 -999 -999 8.2 102750 40
2010-04-27 06:11:50 51°13.662 2°55.959 -999 13 8.2 102750 39
2010-04-27 06:11:53 51°13.662 2°55.959 -999 17 8.2 102750 39
2010-04-27 06:11:58 51°13.662 2°55.959 -999 11 8.2 102750 40
2010-04-27 06:12:03 51°13.662 2°55.959 -999 11 8.2 102750 40
2010-04-27 06:12:08 51°13.663 2°55.959 -999 18 8.2 102750 40
2010-04-27 06:12:13 51°13.663 2°55.959 -999 17 8.2 102750 40
2010-04-27 06:12:18 51°13.663 2°55.959 -999 12 8.2 102750 40
2010-04-27 06:12:23 51°13.663 2°55.959 -999 5 8.2 102750 40
2010-04-27 06:12:28 51°13.663 2°55.959 -999 6 8.2 102750 40
2010-04-27 06:12:33 51°13.662 2°55.959 -999 7 8.2 102750 40
2010-04-27 06:12:38 51°13.662 2°55.959 -999 9 8.2 102750 40
2010-04-27 06:12:43 51°13.662 2°55.959 -999 12 8.2 102750 40
2010-04-27 06:12:49 51°13.662 2°55.959 -999 15 8.2 102750 40
2010-04-27 06:12:54 51°13.662 2°55.96 -999 12 8.2 102750 40
2010-04-27 06:12:58 51°13.662 2°55.96 -999 9 8.2 102750 40
2010-04-27 06:13:04 51°13.662 2°55.96 0.1 7 8.2 102750 40
2010-04-27 06:13:09 51°13.662 2°55.96 0.1 8 8.2 102750 40
2010-04-27 06:13:14 51°13.662 2°55.96 0.1 12 8.2 102750 40
2010-04-27 06:13:18 51°13.662 2°55.96 -999 12 8.2 102750 40
2010-04-27 06:13:23 51°13.662 2°55.96 -999 11 8.2 102750 40
2010-04-27 06:13:28 51°13.662 2°55.96 -999 10 8.2 102750 40
2010-04-27 06:13:34 51°13.662 2°55.96 -999 11 8.2 102750 40
2010-04-27 06:13:38 51°13.662 2°55.96 -999 12 8.2 102750 40
2010-04-27 06:13:43 51°13.662 2°55.96 -999 12 8.2 102750 40
2010-04-27 06:13:49 51°13.662 2°55.96 -999 10 8.2 102750 40
2010-04-27 06:13:54 51°13.662 2°55.96 -999 9 8.2 102750 40
2010-04-27 06:13:58 51°13.662 2°55.96 0.1 8 8.2 102750 40
2010-04-27 06:14:03 51°13.662 2°55.96 0.1 9 8.2 102750 40
2010-04-27 06:14:08 51°13.662 2°55.96 0.1 7 8.2 102750 40
2010-04-27 06:14:14 51°13.662 2°55.96 -999 11 8.2 102750 40
2010-04-27 06:14:18 51°13.662 2°55.96 -999 11 8.2 102750 40
2010-04-27 06:14:23 51°13.662 2°55.961 -999 9 8.2 102750 40
2010-04-27 06:14:29 51°13.662 2°55.961 -999 9 8.2 102750 39
2010-04-27 06:14:34 51°13.662 2°55.961 -999 8 8.2 102750 39
2010-04-27 06:14:38 51°13.662 2°55.961 -999 1 8.2 102750 40
2010-04-27 06:14:43 51°13.662 2°55.961 -999 15 8.2 102750 40
2010-04-27 06:14:48 51°13.662 2°55.961 -999 21 8.2 102750 40
2010-04-27 06:14:54 51°13.662 2°55.961 -999 18 8.2 102750 40
2010-04-27 06:14:58 51°13.662 2°55.961 -999 18 8.2 102750 40
2010-04-27 06:15:04 51°13.662 2°55.961 -999 20 8.2 102750 40
2010-04-27 06:15:09 51°13.662 2°55.961 -999 23 8.2 102750 40
2010-04-27 06:15:14 51°13.662 2°55.96 -999 23 8.2 102750 40
2010-04-27 06:15:19 51°13.662 2°55.96 -999 23 8.2 102750 40
2010-04-27 06:15:24 51°13.662 2°55.961 -999 21 8.2 102750 40
2010-04-27 06:15:29 51°13.662 2°55.961 -999 19 8.2 102750 40
2010-04-27 06:15:34 51°13.662 2°55.961 -999 16 8.2 102750 40
2010-04-27 06:15:39 51°13.662 2°55.961 -999 18 8.2 102750 40
2010-04-27 06:15:43 51°13.662 2°55.961 -999 14 8.2 102750 40
2010-04-27 06:15:49 51°13.662 2°55.961 -999 13 8.2 102750 40
2010-04-27 06:15:54 51°13.662 2°55.961 -999 8 8.2 102750 40
2010-04-27 06:15:59 51°13.662 2°55.961 -999 8 8.2 102750 40
2010-04-27 06:16:04 51°13.662 2°55.961 -999 9 8.2 102750 40
2010-04-27 06:16:08 51°13.662 2°55.961 -999 15 8.2 102750 40
2010-04-27 06:16:14 51°13.662 2°55.961 -999 16 8.2 102750 40
2010-04-27 06:16:19 51°13.662 2°55.961 -999 19 8.2 102750 40
2010-04-27 06:16:24 51°13.662 2°55.961 -999 19 8.2 102750 40
2010-04-27 06:16:28 51°13.662 2°55.961 -999 27 8.3 102750 40
2010-04-27 06:16:34 51°13.662 2°55.961 -999 20 8.3 102750 40
2010-04-27 06:16:39 51°13.662 2°55.96 -999 29 8.3 102750 40
2010-04-27 06:16:43 51°13.662 2°55.96 -999 29 8.3 102750 40
2010-04-27 06:16:49 51°13.662 2°55.96 -999 29 8.3 102750 40
2010-04-27 06:16:54 51°13.662 2°55.96 -999 20 8.3 102750 40
2010-04-27 06:16:59 51°13.662 2°55.96 -999 19 8.3 102750 40
2010-04-27 06:17:03 51°13.662 2°55.96 -999 12 8.3 102750 40
2010-04-27 06:17:08 51°13.662 2°55.96 -999 5 8.3 102750 39
2010-04-27 06:17:14 51°13.662 2°55.96 0.1 4 8.3 102750 39
2010-04-27 06:17:19 51°13.662 2°55.96 0.1 4 8.3 102750 40
2010-04-27 06:17:24 51°13.662 2°55.96 -999 3 8.3 102750 40
2010-04-27 06:17:29 51°13.662 2°55.96 -999 2 8.3 102750 37
2010-04-27 06:17:34 51°13.662 2°55.96 -999 1 8.3 102750 37
2010-04-27 06:17:39 51°13.662 2°55.96 -999 357 8.3 102750 40
2010-04-27 06:17:44 51°13.662 2°55.96 -999 355 8.3 102750 40
2010-04-27 06:17:48 51°13.662 2°55.96 -999 354 8.3 102750 40
2010-04-27 06:17:54 51°13.662 2°55.959 -999 342 8.3 102750 40
2010-04-27 06:17:59 51°13.662 2°55.959 -999 343 8.3 102750 40
2010-04-27 06:18:03 51°13.662 2°55.959 -999 356 8.3 102750 40
2010-04-27 06:18:09 51°13.662 2°55.959 -999 351 8.3 102750 40
2010-04-27 06:18:14 51°13.662 2°55.96 -999 346 8.3 102750 40
2010-04-27 06:18:19 51°13.662 2°55.96 -999 351 8.4 102750 40
2010-04-27 06:18:24 51°13.662 2°55.96 -999 4 8.4 102750 40
2010-04-27 06:18:29 51°13.662 2°55.96 -999 9 8.3 102750 40
2010-04-27 06:18:34 51°13.662 2°55.96 -999 5 8.3 102750 40
2010-04-27 06:18:39 51°13.662 2°55.96 -999 2 8.4 102750 40
2010-04-27 06:18:44 51°13.661 2°55.961 -999 10 8.4 102750 40
2010-04-27 06:18:49 51°13.661 2°55.961 -999 10 8.4 102750 40
2010-04-27 06:18:54 51°13.662 2°55.96 -999 12 8.4 102750 40
2010-04-27 06:18:59 51°13.661 2°55.96 -999 12 8.4 102750 40
2010-04-27 06:19:03 51°13.661 2°55.96 -999 18 8.4 102750 40
2010-04-27 06:19:09 51°13.661 2°55.96 -999 19 8.4 102750 40
2010-04-27 06:19:14 51°13.661 2°55.96 -999 19 8.4 102750 40
2010-04-27 06:19:19 51°13.661 2°55.96 -999 19 8.4 102750 40
2010-04-27 06:19:23 51°13.661 2°55.96 -999 20 8.4 102750 40
2010-04-27 06:19:28 51°13.661 2°55.96 -999 24 8.4 102750 40
2010-04-27 06:19:34 51°13.661 2°55.96 -999 23 8.4 102750 40
2010-04-27 06:19:39 51°13.661 2°55.96 -999 23 8.4 102750 40
2010-04-27 06:19:43 51°13.661 2°55.96 -999 18 8.4 102750 40
2010-04-27 06:19:49 51°13.661 2°55.96 -999 25 8.4 102750 39
2010-04-27 06:19:54 51°13.661 2°55.96 -999 25 8.4 102750 39
2010-04-27 06:19:59 51°13.66 2°55.96 -999 29 8.4 102750 40
2010-04-27 06:20:04 51°13.661 2°55.96 -999 27 8.4 102750 40
2010-04-27 06:20:08 51°13.66 2°55.96 -999 25 8.4 102750 40
2010-04-27 06:20:14 51°13.66 2°55.96 -999 25 8.4 102750 40
2010-04-27 06:20:19 51°13.661 2°55.961 -999 24 8.4 102760 40
2010-04-27 06:20:23 51°13.661 2°55.961 -999 23 8.4 102760 40
2010-04-27 06:20:29 51°13.661 2°55.961 -999 23 8.4 102750 40
2010-04-27 06:20:34 51°13.661 2°55.961 -999 25 8.4 102750 40
2010-04-27 06:20:39 51°13.661 2°55.959 -999 30 8.4 102750 40
2010-04-27 06:20:43 51°13.662 2°55.958 -999 29 8.4 102750 40
2010-04-27 06:20:48 51°13.662 2°55.955 -999 31 8.4 102750 40
2010-04-27 06:20:54 51°13.663 2°55.951 -999 35 8.4 102750 40
2010-04-27 06:20:59 51°13.665 2°55.946 0.1 36 8.4 102750 40
2010-04-27 06:21:03 51°13.666 2°55.941 0.1 39 8.4 102750 40
2010-04-27 06:21:10 51°13.668 2°55.933 1.3 37 8.4 102760 40
2010-04-27 06:21:16 51°13.67 2°55.925 0.8 38 8.4 102760 40
2010-04-27 06:21:22 51°13.672 2°55.917 0.2 39 8.4 102750 40
2010-04-27 06:21:27 51°13.674 2°55.91 0.1 43 8.4 102750 40
2010-04-27 06:21:32 51°13.676 2°55.902 0.5 20 8.5 102750 42
2010-04-27 06:21:37 51°13.677 2°55.895 1.4 45 8.5 102750 42
2010-04-27 06:21:42 51°13.679 2°55.887 1.4 21 8.4 102750 40
2010-04-27 06:21:47 51°13.68 2°55.879 1.5 44 8.4 102750 40
2010-04-27 06:21:52 51°13.681 2°55.871 1.5 43 8.4 102760 41
2010-04-27 06:21:57 51°13.682 2°55.862 1.7 51 8.4 102760 41
2010-04-27 06:22:02 51°13.684 2°55.853 1.9 27 8.4 102760 39
2010-04-27 06:22:07 51°13.685 2°55.844 1.7 53 8.4 102760 39
2010-04-27 06:22:12 51°13.686 2°55.836 1.7 21 8.4 102760 39
2010-04-27 06:22:17 51°13.687 2°55.828 1.4 56 8.4 102760 39
2010-04-27 06:22:22 51°13.688 2°55.82 1.9 24 8.4 102760 43
2010-04-27 06:22:27 51°13.688 2°55.813 1 55 8.4 102760 43
2010-04-27 06:22:32 51°13.689 2°55.805 1.6 24 8.4 102760 41
2010-04-27 06:22:37 51°13.689 2°55.799 1.9 53 8.4 102760 41
2010-04-27 06:22:42 51°13.69 2°55.792 1.5 21 8.4 102760 38
2010-04-27 06:22:47 51°13.69 2°55.785 1.6 55 8.4 102760 38
2010-04-27 06:22:51 51°13.69 2°55.781 1.5 20 8.4 102760 39
2010-04-27 06:22:57 51°13.691 2°55.776 0.9 56 8.4 102760 39
2010-04-27 06:23:02 51°13.691 2°55.773 0.5 24 8.5 102760 39
2010-04-27 06:23:07 51°13.691 2°55.771 1 57 8.5 102760 39
2010-04-27 06:23:12 51°13.692 2°55.77 1 25 8.4 102760 40
2010-04-27 06:23:17 51°13.692 2°55.769 0.4 49 8.4 102760 40
2010-04-27 06:23:22 51°13.692 2°55.769 0.1 21 8.4 102760 41
2010-04-27 06:23:27 51°13.693 2°55.769 0.1 54 8.4 102760 41
2010-04-27 06:23:32 51°13.693 2°55.769 -999 23 8.5 102760 39
2010-04-27 06:23:37 51°13.694 2°55.769 -999 54 8.5 102760 39
2010-04-27 06:23:42 51°13.695 2°55.769 -999 23 8.5 102760 40
2010-04-27 06:23:47 51°13.695 2°55.769 -999 54 8.5 102760 40
2010-04-27 06:23:52 51°13.695 2°55.769 -999 28 8.5 102760 40
2010-04-27 06:23:57 51°13.695 2°55.768 0.4 57 8.5 102760 40
2010-04-27 06:24:02 51°13.696 2°55.766 1.3 27 8.5 102760 40
2010-04-27 06:24:07 51°13.695 2°55.764 1.6 53 8.5 102760 40
2010-04-27 06:24:12 51°13.694 2°55.762 1.1 26 8.4 102760 40
2010-04-27 06:24:17 51°13.693 2°55.76 1 54 8.4 102760 40
2010-04-27 06:24:22 51°13.692 2°55.758 0.7 20 8.5 102760 38
2010-04-27 06:24:27 51°13.69 2°55.757 1.4 54 8.5 102760 38
2010-04-27 06:24:32 51°13.689 2°55.755 1.2 21 8.5 102760 40
2010-04-27 06:24:37 51°13.689 2°55.754 1.3 52 8.5 102760 40
2010-04-27 06:24:42 51°13.689 2°55.754 1.1 27 8.6 102760 40
2010-04-27 06:24:47 51°13.691 2°55.754 0.9 56 8.6 102760 40
2010-04-27 06:24:52 51°13.692 2°55.755 0.9 22 8.6 102760 38
2010-04-27 06:24:57 51°13.695 2°55.755 1.2 57 8.6 102760 38
2010-04-27 06:25:02 51°13.698 2°55.754 0.8 23 8.7 102760 40
2010-04-27 06:25:07 51°13.701 2°55.753 0.9 308 8.7 102760 40
2010-04-27 06:25:11 51°13.704 2°55.751 0.4 266 8.7 102760 38
2010-04-27 06:25:17 51°13.71 2°55.748 0.1 306 8.7 102760 38
2010-04-27 06:25:22 51°13.714 2°55.744 0.1 23 8.7 102760 38
2010-04-27 06:25:27 51°13.72 2°55.739 0.1 306 8.7 102760 38
2010-04-27 06:25:32 51°13.725 2°55.734 2.1 25 8.8 102760 40
2010-04-27 06:25:37 51°13.731 2°55.728 1.9 302 8.8 102760 40
2010-04-27 06:25:42 51°13.737 2°55.722 1.9 27 8.8 102760 41
2010-04-27 06:25:47 51°13.744 2°55.715 1.7 305 8.8 102760 41
2010-04-27 06:25:52 51°13.752 2°55.708 1.8 27 8.8 102760 39
2010-04-27 06:25:57 51°13.759 2°55.7 1.7 304 8.8 102760 39
2010-04-27 06:26:02 51°13.767 2°55.693 1.8 318 8.8 102760 43
2010-04-27 06:26:07 51°13.774 2°55.685 2.3 306 8.8 102760 43
2010-04-27 06:26:11 51°13.781 2°55.679 2.1 27 8.8 102760 39
2010-04-27 06:26:17 51°13.791 2°55.669 2.2 303 8.8 102760 39
2010-04-27 06:26:22 51°13.8 2°55.661 2.2 316 8.8 102760 39
2010-04-27 06:26:27 51°13.809 2°55.654 2.1 302 8.8 102760 39
2010-04-27 06:26:31 51°13.816 2°55.648 1.8 320 8.8 102760 39
2010-04-27 06:26:37 51°13.827 2°55.638 1.8 306 8.8 102760 39
2010-04-27 06:26:42 51°13.837 2°55.631 2.1 324 8.8 102760 39
2010-04-27 06:26:47 51°13.846 2°55.623 2.1 304 8.8 102760 39
2010-04-27 06:26:51 51°13.854 2°55.618 2 328 8.7 102760 39
2010-04-27 06:26:56 51°13.864 2°55.61 2.1 328 8.7 102760 39
2010-04-27 06:27:01 51°13.874 2°55.602 2.2 327 8.7 102750 39
2010-04-27 06:27:07 51°13.886 2°55.593 2.8 322 8.7 102750 39
2010-04-27 06:27:11 51°13.894 2°55.587 2.2 320 8.7 102750 39
2010-04-27 06:27:16 51°13.904 2°55.58 2.1 326 8.7 102750 39
2010-04-27 06:27:21 51°13.914 2°55.572 2.1 322 8.8 102750 39
2010-04-27 06:27:27 51°13.927 2°55.564 2.1 334 8.8 102750 39
2010-04-27 06:27:32 51°13.938 2°55.557 2.3 328 8.8 102760 39
2010-04-27 06:27:37 51°13.948 2°55.55 2.1 327 8.8 102760 39
2010-04-27 06:27:42 51°13.959 2°55.542 2.3 326 8.8 102760 38
2010-04-27 06:27:47 51°13.97 2°55.535 2 332 8.8 102760 38
2010-04-27 06:27:51 51°13.978 2°55.529 2.6 331 8.8 102760 41
2010-04-27 06:27:56 51°13.989 2°55.521 2.2 332 8.8 102760 41
2010-04-27 06:28:01 51°14 2°55.513 2.3 328 8.8 102760 39
2010-04-27 06:28:06 51°14.011 2°55.505 2.1 303 8.8 102760 39
2010-04-27 06:28:11 51°14.022 2°55.497 2.1 327 8.8 102750 43
2010-04-27 06:28:16 51°14.033 2°55.49 2.3 328 8.8 102750 43
2010-04-27 06:28:21 51°14.044 2°55.482 2.2 330 8.8 102760 40
2010-04-27 06:28:26 51°14.055 2°55.474 2.4 323 8.8 102760 40
2010-04-27 06:28:31 51°14.067 2°55.467 2.1 325 8.8 102760 39
2010-04-27 06:28:37 51°14.081 2°55.457 2.3 325 8.8 102760 39
2010-04-27 06:28:42 51°14.092 2°55.449 1.9 329 8.9 102760 42
2010-04-27 06:28:47 51°14.104 2°55.44 2.2 331 8.9 102760 42
2010-04-27 06:28:51 51°14.113 2°55.434 1.9 330 8.9 102760 41
2010-04-27 06:28:57 51°14.127 2°55.424 1.8 331 8.9 102760 41
2010-04-27 06:29:02 51°14.14 2°55.416 2.4 330 8.9 102760 38
2010-04-27 06:29:07 51°14.152 2°55.408 2.3 328 8.9 102760 38
2010-04-27 06:29:12 51°14.164 2°55.398 2.5 329 8.9 102750 42
2010-04-27 06:29:17 51°14.175 2°55.389 2.4 330 8.9 102750 42
2010-04-27 06:29:22 51°14.187 2°55.379 2.4 329 8.9 102760 40
2010-04-27 06:29:27 51°14.198 2°55.368 2.5 335 8.9 102760 40
2010-04-27 06:29:31 51°14.207 2°55.359 2.4 330 8.9 102750 39
2010-04-27 06:29:36 51°14.219 2°55.348 2.6 329 8.9 102750 39
2010-04-27 06:29:41 51°14.23 2°55.337 2.6 329 8.9 102750 43
2010-04-27 06:29:46 51°14.242 2°55.326 2.4 323 8.9 102750 43
2010-04-27 06:29:51 51°14.254 2°55.315 2.3 327 9 102760 43
2010-04-27 06:29:55 51°14.263 2°55.306 2.1 332 9 102760 43
2010-04-27 06:30:00 51°14.275 2°55.295 2.5 333 9 102750 39
2010-04-27 06:30:05 51°14.287 2°55.283 2.7 330 9 102750 39
2010-04-27 06:30:11 51°14.301 2°55.269 2.5 329 9 102750 39
2010-04-27 06:30:15 51°14.311 2°55.26 2.7 330 9 102750 39
2010-04-27 06:30:20 51°14.324 2°55.248 2.8 331 9 102750 43
2010-04-27 06:30:25 51°14.336 2°55.235 2.7 329 9 102750 43
2010-04-27 06:30:30 51°14.348 2°55.223 3.1 327 9 102760 38
2010-04-27 06:30:35 51°14.361 2°55.211 3.2 325 9 102760 38
2010-04-27 06:30:39 51°14.371 2°55.201 3.2 327 9 102760 40
2010-04-27 06:30:44 51°14.384 2°55.188 3.6 327 9 102760 40
2010-04-27 06:30:49 51°14.397 2°55.175 3.8 328 9 102750 39
2010-04-27 06:30:54 51°14.41 2°55.162 4.1 329 9 102750 39
2010-04-27 06:30:59 51°14.423 2°55.149 4.7 330 9.1 102750 41
2010-04-27 06:31:03 51°14.434 2°55.139 4.5 327 9.1 102750 41
2010-04-27 06:31:08 51°14.448 2°55.126 4.2 327 9.1 102760 39
2010-04-27 06:31:13 51°14.463 2°55.113 4.3 303 9.1 102760 39
2010-04-27 06:31:18 51°14.478 2°55.099 4.4 326 9.2 102760 43
2010-04-27 06:31:23 51°14.492 2°55.085 4.3 303 9.2 102760 43
2010-04-27 06:31:28 51°14.506 2°55.069 4.5 325 9.2 102750 40
2010-04-27 06:31:33 51°14.521 2°55.053 5.3 326 9.2 102750 40
2010-04-27 06:31:38 51°14.535 2°55.034 5 324 9.3 102750 40
2010-04-27 06:31:43 51°14.548 2°55.014 5.9 303 9.3 102750 40
2010-04-27 06:31:48 51°14.56 2°54.992 5.4 322 9.3 102750 42
2010-04-27 06:31:53 51°14.574 2°54.971 5.7 304 9.3 102750 42
2010-04-27 06:31:58 51°14.588 2°54.951 5.2 322 9.4 102750 40
2010-04-27 06:32:03 51°14.603 2°54.931 5.6 308 9.4 102750 40
2010-04-27 06:32:08 51°14.617 2°54.911 5.4 321 9.4 102750 40
2010-04-27 06:32:13 51°14.631 2°54.891 4.9 307 9.4 102750 40
2010-04-27 06:32:18 51°14.646 2°54.872 5.4 321 9.4 102750 39
2010-04-27 06:32:23 51°14.661 2°54.852 4.9 321 9.4 102750 39
2010-04-27 06:32:28 51°14.675 2°54.833 5 321 9.4 102750 43
2010-04-27 06:32:33 51°14.691 2°54.815 5.6 307 9.4 102750 43
2010-04-27 06:32:38 51°14.706 2°54.797 4.9 320 9.5 102750 39
2010-04-27 06:32:43 51°14.721 2°54.778 4.9 302 9.5 102750 39
2010-04-27 06:32:48 51°14.736 2°54.761 4.9 320 9.5 102750 39
2010-04-27 06:32:53 51°14.752 2°54.744 4.7 306 9.5 102750 39
2010-04-27 06:32:58 51°14.768 2°54.728 4.6 320 9.5 102750 43
2010-04-27 06:33:03 51°14.784 2°54.712 4.8 303 9.5 102750 43
2010-04-27 06:33:08 51°14.8 2°54.695 5.1 320 9.5 102750 38
2010-04-27 06:33:13 51°14.815 2°54.677 5.2 309 9.5 102750 38
2010-04-27 06:33:18 51°14.83 2°54.658 4.8 323 9.5 102750 39
2010-04-27 06:33:23 51°14.845 2°54.64 4.8 301 9.5 102750 39
2010-04-27 06:33:28 51°14.86 2°54.621 4.8 319 9.5 102750 39
2010-04-27 06:33:33 51°14.875 2°54.602 4.8 306 9.5 102750 39
2010-04-27 06:33:38 51°14.889 2°54.582 5.1 319 9.5 102750 42
2010-04-27 06:33:43 51°14.905 2°54.563 4.9 307 9.5 102750 42
2010-04-27 06:33:48 51°14.919 2°54.544 4.4 319 9.5 102760 42
2010-04-27 06:33:53 51°14.934 2°54.526 4.6 308 9.5 102760 42
2010-04-27 06:33:58 51°14.948 2°54.507 4.6 318 9.5 102750 39
2010-04-27 06:34:03 51°14.962 2°54.488 4.9 302 9.5 102750 39
2010-04-27 06:34:08 51°14.976 2°54.468 5 318 9.4 102750 39
2010-04-27 06:34:13 51°14.988 2°54.445 5.1 309 9.4 102750 39
2010-04-27 06:34:18 51°14.998 2°54.42 5.6 316 9.4 102750 43
2010-04-27 06:34:23 51°15.006 2°54.393 6 302 9.4 102750 43
2010-04-27 06:34:28 51°15.011 2°54.365 6.5 319 9.4 102750 39
2010-04-27 06:34:33 51°15.014 2°54.335 6.4 301 9.4 102750 39
2010-04-27 06:34:38 51°15.015 2°54.305 6.7 318 9.4 102750 42
2010-04-27 06:34:43 51°15.014 2°54.275 7.1 306 9.4 102750 42
2010-04-27 06:34:48 51°15.011 2°54.246 7.1 322 9.4 102750 42
2010-04-27 06:34:53 51°15.005 2°54.217 7.8 305 9.4 102750 42
2010-04-27 06:34:58 51°14.998 2°54.189 7.4 323 9.4 102750 42
2010-04-27 06:35:03 51°14.989 2°54.162 8 325 9.4 102750 42
2010-04-27 06:35:08 51°14.978 2°54.137 8.1 325 9.4 102750 39
2010-04-27 06:35:14 51°14.962 2°54.11 7.8 301 9.4 102750 39
2010-04-27 06:35:18 51°14.951 2°54.094 9.1 327 9.3 102750 39
2010-04-27 06:35:23 51°14.935 2°54.077 8.2 328 9.3 102750 39
2010-04-27 06:35:28 51°14.918 2°54.061 8.6 330 9.4 102740 41
2010-04-27 06:35:33 51°14.901 2°54.047 9.2 330 9.4 102740 41
2010-04-27 06:35:38 51°14.883 2°54.034 8.5 331 9.4 102740 39
2010-04-27 06:35:43 51°14.865 2°54.021 8 330 9.4 102740 39
2010-04-27 06:35:48 51°14.847 2°54.01 8.3 331 9.3 102740 41
2010-04-27 06:35:53 51°14.829 2°53.997 8.2 330 9.3 102740 41
2010-04-27 06:35:58 51°14.81 2°53.986 8.3 330 9.3 102740 41
2010-04-27 06:36:03 51°14.792 2°53.973 8.1 331 9.3 102740 41
2010-04-27 06:36:08 51°14.773 2°53.962 8.2 330 9.3 102750 42
2010-04-27 06:36:13 51°14.754 2°53.95 7.9 330 9.3 102750 42
2010-04-27 06:36:18 51°14.736 2°53.938 8.3 331 9.3 102750 39
2010-04-27 06:36:23 51°14.717 2°53.926 7.9 331 9.3 102750 39
2010-04-27 06:36:28 51°14.698 2°53.915 8.2 330 9.3 102750 39
2010-04-27 06:36:33 51°14.678 2°53.904 7.9 330 9.3 102750 39
2010-04-27 06:36:39 51°14.655 2°53.892 8.3 331 9.3 102750 41
2010-04-27 06:36:43 51°14.64 2°53.884 7.7 330 9.3 102750 41
2010-04-27 06:36:48 51°14.62 2°53.875 8.2 330 9.3 102750 41
2010-04-27 06:36:54 51°14.596 2°53.865 8.4 330 9.3 102750 41
2010-04-27 06:36:58 51°14.581 2°53.858 8.4 331 9.3 102750 40
2010-04-27 06:37:03 51°14.561 2°53.851 7.7 331 9.3 102750 40
2010-04-27 06:37:08 51°14.542 2°53.844 7.8 331 9.3 102750 40
2010-04-27 06:37:13 51°14.523 2°53.837 8 330 9.3 102750 40
2010-04-27 06:37:18 51°14.503 2°53.83 7.9 331 9.3 102750 42
2010-04-27 06:37:23 51°14.484 2°53.823 8.2 330 9.3 102750 42
2010-04-27 06:37:28 51°14.465 2°53.817 8.3 330 9.3 102750 40
2010-04-27 06:37:34 51°14.441 2°53.808 7.6 329 9.3 102750 40
2010-04-27 06:37:39 51°14.422 2°53.8 8 329 9.3 102750 39
2010-04-27 06:37:43 51°14.407 2°53.792 7.7 330 9.3 102750 39
2010-04-27 06:37:48 51°14.388 2°53.783 7.8 328 9.2 102750 40
2010-04-27 06:37:53 51°14.369 2°53.773 7.5 330 9.2 102750 40
2010-04-27 06:37:58 51°14.35 2°53.762 8.1 329 9.2 102750 41
2010-04-27 06:38:03 51°14.331 2°53.751 8.3 329 9.2 102750 41
2010-04-27 06:38:08 51°14.314 2°53.738 8.2 327 9.2 102750 40
2010-04-27 06:38:13 51°14.296 2°53.723 8.2 327 9.2 102750 40
2010-04-27 06:38:18 51°14.279 2°53.705 8.3 326 9.2 102750 39
2010-04-27 06:38:23 51°14.263 2°53.687 7.7 326 9.2 102750 39
2010-04-27 06:38:28 51°14.247 2°53.666 7.2 326 9.2 102750 40
2010-04-27 06:38:33 51°14.233 2°53.644 8.2 325 9.2 102750 40
2010-04-27 06:38:38 51°14.22 2°53.62 8.5 324 9.2 102750 41
2010-04-27 06:38:43 51°14.207 2°53.595 7.9 326 9.2 102750 41
2010-04-27 06:38:48 51°14.195 2°53.57 7.3 326 9.2 102750 40
2010-04-27 06:38:53 51°14.183 2°53.544 8.2 324 9.2 102750 40
2010-04-27 06:38:58 51°14.17 2°53.519 7.3 326 9.2 102750 41
2010-04-27 06:39:03 51°14.159 2°53.492 7.3 302 9.2 102750 41
2010-04-27 06:39:08 51°14.147 2°53.466 6.9 324 9.2 102750 42
2010-04-27 06:39:13 51°14.135 2°53.44 7.2 306 9.2 102750 42
2010-04-27 06:39:18 51°14.124 2°53.413 7.1 323 9.2 102750 41
2010-04-27 06:39:23 51°14.112 2°53.387 7.3 325 9.2 102750 41
2010-04-27 06:39:28 51°14.099 2°53.361 7.4 324 9.2 102750 42
2010-04-27 06:39:33 51°14.085 2°53.337 7.9 326 9.2 102750 42
2010-04-27 06:39:38 51°14.071 2°53.313 8 326 9.2 102760 40
2010-04-27 06:39:43 51°14.057 2°53.289 8.1 326 9.2 102760 40
2010-04-27 06:39:48 51°14.042 2°53.266 7.8 325 9.2 102750 39
2010-04-27 06:39:53 51°14.027 2°53.244 8.1 326 9.2 102750 39
2010-04-27 06:39:58 51°14.012 2°53.222 7.8 326 9.2 102740 41
2010-04-27 06:40:03 51°13.997 2°53.2 7.8 279 9.2 102740 41
2010-04-27 06:40:08 51°13.981 2°53.178 7.5 326 9.2 102750 42
2010-04-27 06:40:13 51°13.966 2°53.157 7.4 325 9.2 102750 42
2010-04-27 06:40:18 51°13.951 2°53.134 7.8 325 9.2 102750 39
2010-04-27 06:40:23 51°13.937 2°53.111 7.3 323 9.2 102750 39
2010-04-27 06:40:28 51°13.922 2°53.087 7.6 325 9.2 102750 42
2010-04-27 06:40:33 51°13.908 2°53.062 7.6 324 9.2 102750 42
2010-04-27 06:40:38 51°13.895 2°53.038 7.7 325 9.2 102750 40
2010-04-27 06:40:43 51°13.881 2°53.012 8.1 324 9.2 102750 40
2010-04-27 06:40:48 51°13.868 2°52.987 7.3 323 9.2 102740 39
2010-04-27 06:40:53 51°13.855 2°52.961 7.2 303 9.2 102740 39
2010-04-27 06:40:58 51°13.842 2°52.935 7.4 323 9.2 102750 42
2010-04-27 06:41:03 51°13.83 2°52.908 7.4 281 9.2 102750 42
2010-04-27 06:41:08 51°13.819 2°52.88 7.7 323 9.2 102750 41
2010-04-27 06:41:13 51°13.807 2°52.853 8.4 323 9.2 102750 41
2010-04-27 06:41:18 51°13.796 2°52.825 8.3 322 9.2 102750 40
2010-04-27 06:41:23 51°13.784 2°52.797 8 324 9.2 102750 40
2010-04-27 06:41:28 51°13.773 2°52.77 8.4 322 9.2 102750 41
2010-04-27 06:41:33 51°13.762 2°52.742 8.4 303 9.2 102750 41
2010-04-27 06:41:38 51°13.75 2°52.714 8.1 322 9.2 102750 40
2010-04-27 06:41:43 51°13.738 2°52.687 7.9 323 9.2 102750 40
2010-04-27 06:41:48 51°13.726 2°52.66 8.3 323 9.2 102750 39
2010-04-27 06:41:53 51°13.714 2°52.633 8.1 306 9.2 102750 39
2010-04-27 06:41:58 51°13.702 2°52.606 7.9 324 9.2 102750 39
2010-04-27 06:42:03 51°13.689 2°52.579 7.3 282 9.2 102750 39
2010-04-27 06:42:08 51°13.677 2°52.552 7.9 324 9.2 102740 39
2010-04-27 06:42:13 51°13.665 2°52.525 7.7 302 9.2 102740 39
2010-04-27 06:42:18 51°13.653 2°52.497 7.1 323 9.2 102740 41
2010-04-27 06:42:23 51°13.642 2°52.469 7.4 304 9.2 102740 41
2010-04-27 06:42:28 51°13.631 2°52.441 7.9 323 9.2 102740 39
2010-04-27 06:42:33 51°13.62 2°52.412 7.5 305 9.2 102740 39
2010-04-27 06:42:38 51°13.609 2°52.383 8.2 322 9.2 102750 41
2010-04-27 06:42:43 51°13.599 2°52.354 7.4 306 9.2 102750 41
2010-04-27 06:42:48 51°13.589 2°52.325 7.4 322 9.2 102750 42
2010-04-27 06:42:53 51°13.578 2°52.296 7.9 304 9.2 102750 42
2010-04-27 06:42:58 51°13.568 2°52.267 7.3 323 9.2 102750 39
2010-04-27 06:43:03 51°13.557 2°52.238 7.4 278 9.2 102750 39
2010-04-27 06:43:08 51°13.546 2°52.209 7.2 323 9.2 102740 39
2010-04-27 06:43:13 51°13.536 2°52.18 8.2 306 9.2 102740 39
2010-04-27 06:43:18 51°13.525 2°52.152 8.4 324 9.2 102740 40
2010-04-27 06:43:23 51°13.513 2°52.123 8.8 302 9.2 102740 40
2010-04-27 06:43:28 51°13.502 2°52.095 8.5 322 9.2 102740 40
2010-04-27 06:43:33 51°13.491 2°52.067 8.7 322 9.2 102740 40
2010-04-27 06:43:38 51°13.479 2°52.038 8.1 322 9.2 102740 39
2010-04-27 06:43:43 51°13.468 2°52.01 8.5 301 9.2 102740 39
2010-04-27 06:43:48 51°13.457 2°51.981 7.3 322 9.2 102750 40
2010-04-27 06:43:53 51°13.446 2°51.952 7.4 302 9.2 102750 40
2010-04-27 06:43:58 51°13.436 2°51.923 8.1 323 9.2 102740 39
2010-04-27 06:44:03 51°13.425 2°51.894 7.9 284 9.2 102740 39
2010-04-27 06:44:08 51°13.415 2°51.864 7 322 9.1 102750 39
2010-04-27 06:44:13 51°13.404 2°51.835 7.9 307 9.1 102750 39
2010-04-27 06:44:18 51°13.394 2°51.805 7.8 321 9.1 102740 41
2010-04-27 06:44:23 51°13.383 2°51.776 7.7 322 9.1 102740 41
2010-04-27 06:44:28 51°13.373 2°51.747 8.4 322 9.1 102750 39
2010-04-27 06:44:33 51°13.362 2°51.718 8.2 307 9.1 102750 39
2010-04-27 06:44:38 51°13.351 2°51.689 7.6 323 9.1 102750 40
2010-04-27 06:44:43 51°13.34 2°51.66 8.1 308 9.1 102750 40
2010-04-27 06:44:48 51°13.328 2°51.632 8.5 323 9.1 102750 40
2010-04-27 06:44:53 51°13.317 2°51.603 8 306 9.1 102750 40
2010-04-27 06:44:58 51°13.305 2°51.575 7 322 9.1 102740 42
2010-04-27 06:45:03 51°13.294 2°51.546 7.5 279 9.1 102740 42
2010-04-27 06:45:08 51°13.283 2°51.518 8 322 9.1 102740 41
2010-04-27 06:45:13 51°13.272 2°51.489 7.7 323 9.1 102740 41
2010-04-27 06:45:18 51°13.261 2°51.46 7.8 322 9.1 102750 41
2010-04-27 06:45:23 51°13.249 2°51.431 8.1 308 9.1 102750 41
2010-04-27 06:45:28 51°13.238 2°51.403 7.6 323 9.1 102740 40
2010-04-27 06:45:33 51°13.227 2°51.374 7.9 302 9.1 102740 40
2010-04-27 06:45:38 51°13.216 2°51.345 7.5 323 9.1 102740 41
2010-04-27 06:45:43 51°13.205 2°51.316 7.8 305 9.1 102740 41
2010-04-27 06:45:48 51°13.194 2°51.287 7.4 322 9.1 102750 41
2010-04-27 06:45:53 51°13.183 2°51.258 6.8 322 9.1 102750 41
2010-04-27 06:45:58 51°13.172 2°51.229 7.5 323 9.1 102750 40
2010-04-27 06:46:03 51°13.161 2°51.201 7.2 282 9.1 102750 40
2010-04-27 06:46:08 51°13.15 2°51.172 7.9 324 9.1 102750 40
2010-04-27 06:46:13 51°13.139 2°51.143 7.2 307 9.1 102750 40
2010-04-27 06:46:18 51°13.128 2°51.114 7.1 323 9.1 102740 39
2010-04-27 06:46:23 51°13.117 2°51.086 7.3 322 9.1 102740 39
2010-04-27 06:46:28 51°13.106 2°51.057 8.1 322 9.1 102740 38
2010-04-27 06:46:33 51°13.095 2°51.028 7.6 322 9.1 102740 38
2010-04-27 06:46:38 51°13.083 2°51 7.8 322 9.1 102750 39
2010-04-27 06:46:43 51°13.073 2°50.971 8.2 307 9.1 102750 39
2010-04-27 06:46:48 51°13.062 2°50.942 8.2 322 9.1 102750 41
2010-04-27 06:46:53 51°13.05 2°50.913 8.3 322 9.1 102750 41
2010-04-27 06:46:58 51°13.04 2°50.885 7.8 322 9.1 102740 41
2010-04-27 06:47:03 51°13.029 2°50.856 7.8 285 9.1 102740 41
2010-04-27 06:47:08 51°13.017 2°50.827 8.8 323 9.1 102750 41
2010-04-27 06:47:13 51°13.006 2°50.799 7.8 305 9.1 102750 41
2010-04-27 06:47:18 51°12.995 2°50.77 8.5 322 9.1 102740 40
2010-04-27 06:47:23 51°12.984 2°50.742 8.3 303 9.1 102740 40
2010-04-27 06:47:28 51°12.972 2°50.713 8.1 323 9.1 102740 42
2010-04-27 06:47:33 51°12.961 2°50.685 8.1 302 9.1 102740 42
2010-04-27 06:47:38 51°12.949 2°50.657 8.1 322 9.1 102740 39
2010-04-27 06:47:43 51°12.938 2°50.629 7.6 303 9.1 102740 39
2010-04-27 06:47:48 51°12.927 2°50.6 7.7 323 9.1 102740 39
2010-04-27 06:47:53 51°12.915 2°50.572 7.9 302 9.1 102740 39
2010-04-27 06:47:58 51°12.904 2°50.543 8.3 322 9.1 102750 41
2010-04-27 06:48:03 51°12.894 2°50.514 8.2 278 9.1 102750 41
2010-04-27 06:48:08 51°12.883 2°50.485 7.9 322 9.1 102750 39
2010-04-27 06:48:13 51°12.872 2°50.456 8 323 9.1 102750 39
2010-04-27 06:48:18 51°12.861 2°50.427 8.1 322 9.1 102750 40
2010-04-27 06:48:23 51°12.85 2°50.399 7.3 302 9.1 102750 40
2010-04-27 06:48:28 51°12.839 2°50.37 8.4 322 9.2 102750 41
2010-04-27 06:48:33 51°12.828 2°50.342 8.3 302 9.2 102750 41
2010-04-27 06:48:38 51°12.817 2°50.313 7.7 322 9.2 102750 41
2010-04-27 06:48:43 51°12.805 2°50.285 8.1 305 9.2 102750 41
2010-04-27 06:48:48 51°12.794 2°50.256 8 322 9.2 102750 41
2010-04-27 06:48:53 51°12.783 2°50.228 8.5 304 9.2 102750 41
2010-04-27 06:48:58 51°12.772 2°50.199 8.5 322 9.2 102750 42
2010-04-27 06:49:03 51°12.761 2°50.171 7.5 285 9.2 102750 42
2010-04-27 06:49:08 51°12.75 2°50.142 7.8 322 9.2 102750 39
2010-04-27 06:49:13 51°12.739 2°50.113 8.3 302 9.2 102750 39
2010-04-27 06:49:18 51°12.728 2°50.084 7.3 322 9.2 102750 39
2010-04-27 06:49:23 51°12.718 2°50.054 7.7 305 9.2 102750 39
2010-04-27 06:49:28 51°12.707 2°50.025 8.1 321 9.2 102750 40
2010-04-27 06:49:33 51°12.696 2°49.997 7.8 322 9.2 102750 40
2010-04-27 06:49:38 51°12.686 2°49.968 7.4 323 9.2 102750 41
2010-04-27 06:49:43 51°12.675 2°49.938 7.7 307 9.2 102750 41
2010-04-27 06:49:48 51°12.665 2°49.91 7.2 324 9.2 102750 40
2010-04-27 06:49:53 51°12.654 2°49.881 7.6 323 9.2 102750 40
2010-04-27 06:49:58 51°12.643 2°49.853 8.1 323 9.2 102750 39
2010-04-27 06:50:03 51°12.632 2°49.824 8 323 9.2 102750 39
2010-04-27 06:50:08 51°12.62 2°49.795 8.2 323 9.2 102750 42
2010-04-27 06:50:13 51°12.609 2°49.767 7.6 302 9.2 102750 42
2010-04-27 06:50:18 51°12.598 2°49.738 8.1 322 9.2 102750 39
2010-04-27 06:50:23 51°12.588 2°49.709 8.3 302 9.2 102750 39
2010-04-27 06:50:28 51°12.578 2°49.679 7.7 322 9.2 102750 39
2010-04-27 06:50:33 51°12.568 2°49.649 7.5 303 9.2 102750 39
2010-04-27 06:50:38 51°12.558 2°49.619 7.6 322 9.2 102750 39
2010-04-27 06:50:43 51°12.549 2°49.589 7.6 306 9.2 102750 39
2010-04-27 06:50:48 51°12.54 2°49.558 7.5 322 9.2 102750 42
2010-04-27 06:50:53 51°12.531 2°49.527 7.3 322 9.2 102750 42
2010-04-27 06:50:58 51°12.523 2°49.496 7 321 9.2 102750 40
2010-04-27 06:51:03 51°12.515 2°49.464 7.1 322 9.2 102750 40
2010-04-27 06:51:08 51°12.507 2°49.433 7.5 322 9.2 102750 39
2010-04-27 06:51:13 51°12.5 2°49.401 7.6 303 9.2 102750 39
2010-04-27 06:51:18 51°12.492 2°49.369 6.9 324 9.2 102740 40
2010-04-27 06:51:23 51°12.485 2°49.337 7.2 308 9.2 102740 40
2010-04-27 06:51:28 51°12.478 2°49.304 6.6 321 9.2 102750 40
2010-04-27 06:51:33 51°12.472 2°49.272 7.6 309 9.2 102750 40
2010-04-27 06:51:38 51°12.465 2°49.239 7.2 323 9.3 102750 39
2010-04-27 06:51:43 51°12.459 2°49.207 7.3 323 9.3 102750 39
2010-04-27 06:51:48 51°12.453 2°49.174 7.2 322 9.3 102750 39
2010-04-27 06:51:53 51°12.446 2°49.141 7.8 323 9.3 102750 39
2010-04-27 06:51:58 51°12.44 2°49.108 7.3 324 9.3 102750 40
2010-04-27 06:52:03 51°12.434 2°49.076 7.5 324 9.3 102750 40
2010-04-27 06:52:08 51°12.427 2°49.043 7.3 322 9.3 102760 39
2010-04-27 06:52:13 51°12.421 2°49.01 7.3 307 9.3 102760 39
2010-04-27 06:52:18 51°12.414 2°48.977 7.1 322 9.3 102750 41
2010-04-27 06:52:23 51°12.407 2°48.945 7.7 307 9.3 102750 41
2010-04-27 06:52:28 51°12.4 2°48.912 7.1 324 9.3 102750 42
2010-04-27 06:52:33 51°12.393 2°48.879 7.7 323 9.3 102750 42
2010-04-27 06:52:38 51°12.387 2°48.847 7.7 323 9.4 102750 39
2010-04-27 06:52:43 51°12.38 2°48.814 7.3 323 9.4 102750 39
2010-04-27 06:52:48 51°12.374 2°48.782 7.7 324 9.4 102750 39
2010-04-27 06:52:53 51°12.367 2°48.749 7 303 9.4 102750 39
2010-04-27 06:52:58 51°12.361 2°48.717 7.9 323 9.4 102750 41
2010-04-27 06:53:03 51°12.354 2°48.684 7.3 304 9.4 102750 41
2010-04-27 06:53:08 51°12.348 2°48.652 7.4 324 9.4 102750 40
2010-04-27 06:53:13 51°12.341 2°48.62 7.2 301 9.4 102750 40
2010-04-27 06:53:18 51°12.334 2°48.587 7 324 9.4 102750 40
2010-04-27 06:53:23 51°12.327 2°48.555 7.6 305 9.4 102750 40
2010-04-27 06:53:28 51°12.321 2°48.522 7.3 324 9.4 102750 40
2010-04-27 06:53:33 51°12.314 2°48.49 7.4 305 9.4 102750 40
2010-04-27 06:53:38 51°12.307 2°48.458 7.3 323 9.4 102760 41
2010-04-27 06:53:43 51°12.3 2°48.426 7.7 324 9.4 102760 41
2010-04-27 06:53:48 51°12.294 2°48.394 7.4 323 9.5 102750 41
2010-04-27 06:53:53 51°12.287 2°48.362 7.6 305 9.5 102750 41
2010-04-27 06:53:58 51°12.28 2°48.33 7 323 9.5 102750 42
2010-04-27 06:54:03 51°12.273 2°48.297 7.5 304 9.5 102750 42
2010-04-27 06:54:08 51°12.267 2°48.265 8.3 323 9.5 102750 40
2010-04-27 06:54:13 51°12.26 2°48.233 7.4 301 9.5 102750 40
2010-04-27 06:54:18 51°12.253 2°48.2 7.6 323 9.5 102750 41
2010-04-27 06:54:23 51°12.246 2°48.168 7.2 303 9.5 102750 41
2010-04-27 06:54:28 51°12.24 2°48.136 7.5 323 9.5 102750 42
2010-04-27 06:54:33 51°12.233 2°48.103 7.1 303 9.5 102750 42
2010-04-27 06:54:38 51°12.226 2°48.071 7 322 9.5 102750 39
2010-04-27 06:54:43 51°12.219 2°48.039 7.2 323 9.5 102750 39
2010-04-27 06:54:48 51°12.213 2°48.007 7.2 323 9.5 102750 42
2010-04-27 06:54:53 51°12.206 2°47.975 7.1 305 9.5 102750 42
2010-04-27 06:54:58 51°12.199 2°47.943 7.2 323 9.5 102750 38
2010-04-27 06:55:03 51°12.192 2°47.91 7.8 303 9.5 102750 38
2010-04-27 06:55:08 51°12.186 2°47.878 8.5 323 9.5 102750 39
2010-04-27 06:55:13 51°12.179 2°47.846 7.6 305 9.5 102750 39
2010-04-27 06:55:18 51°12.172 2°47.813 8.4 323 9.5 102750 39
2010-04-27 06:55:23 51°12.166 2°47.781 7.6 304 9.5 102750 39
2010-04-27 06:55:28 51°12.159 2°47.749 7.1 324 9.5 102750 41
2010-04-27 06:55:33 51°12.153 2°47.717 7.1 323 9.5 102750 41
2010-04-27 06:55:38 51°12.146 2°47.685 8.1 325 9.5 102750 40
2010-04-27 06:55:43 51°12.14 2°47.652 7 307 9.5 102750 40
2010-04-27 06:55:48 51°12.134 2°47.619 7.1 322 9.6 102750 40
2010-04-27 06:55:53 51°12.128 2°47.587 7.6 306 9.6 102750 40
2010-04-27 06:55:58 51°12.123 2°47.554 7.6 323 9.6 102760 39
2010-04-27 06:56:03 51°12.118 2°47.521 7.6 303 9.6 102760 39
2010-04-27 06:56:08 51°12.113 2°47.488 7.3 323 9.6 102750 40
2010-04-27 06:56:13 51°12.108 2°47.455 7.4 324 9.6 102750 40
2010-04-27 06:56:18 51°12.103 2°47.422 7.5 323 9.6 102760 40
2010-04-27 06:56:23 51°12.098 2°47.388 7.4 303 9.6 102760 40
2010-04-27 06:56:28 51°12.092 2°47.356 7.7 323 9.6 102750 41
2010-04-27 06:56:33 51°12.086 2°47.323 7.4 325 9.6 102750 41
2010-04-27 06:56:38 51°12.081 2°47.291 7.4 324 9.6 102750 41
2010-04-27 06:56:43 51°12.074 2°47.258 7.2 324 9.6 102750 41
2010-04-27 06:56:48 51°12.068 2°47.225 6.8 324 9.6 102760 42
2010-04-27 06:56:53 51°12.063 2°47.193 7.8 323 9.6 102760 42
2010-04-27 06:56:58 51°12.056 2°47.16 7.2 324 9.6 102760 40
2010-04-27 06:57:03 51°12.05 2°47.127 7 323 9.6 102760 40
2010-04-27 06:57:08 51°12.044 2°47.095 7.3 324 9.6 102760 41
2010-04-27 06:57:13 51°12.038 2°47.062 7.5 324 9.6 102760 41
2010-04-27 06:57:18 51°12.032 2°47.029 6.9 323 9.6 102760 40
2010-04-27 06:57:23 51°12.026 2°46.997 7.4 303 9.6 102760 40
2010-04-27 06:57:28 51°12.02 2°46.964 7.6 323 9.6 102760 40
2010-04-27 06:57:33 51°12.014 2°46.931 7.3 303 9.6 102760 40
2010-04-27 06:57:38 51°12.008 2°46.898 7.1 324 9.6 102760 40
2010-04-27 06:57:43 51°12.002 2°46.865 7.8 306 9.6 102760 40
2010-04-27 06:57:48 51°11.997 2°46.833 7.3 323 9.6 102760 42
2010-04-27 06:57:53 51°11.991 2°46.8 7 305 9.6 102760 42
2010-04-27 06:57:58 51°11.985 2°46.767 7.2 324 9.6 102760 39
2010-04-27 06:58:03 51°11.979 2°46.734 7.3 324 9.6 102760 39
2010-04-27 06:58:08 51°11.973 2°46.701 7.5 324 9.6 102760 39
2010-04-27 06:58:13 51°11.967 2°46.669 7.4 325 9.6 102760 39
2010-04-27 06:58:18 51°11.961 2°46.636 7.8 324 9.6 102760 42
2010-04-27 06:58:23 51°11.956 2°46.603 7.7 325 9.6 102760 42
2010-04-27 06:58:28 51°11.95 2°46.57 7.7 326 9.6 102760 40
2010-04-27 06:58:33 51°11.945 2°46.537 7.1 324 9.6 102760 40
2010-04-27 06:58:38 51°11.939 2°46.504 7.5 325 9.6 102760 42
2010-04-27 06:58:43 51°11.934 2°46.471 7.3 325 9.6 102760 42
2010-04-27 06:58:48 51°11.929 2°46.437 7.3 324 9.6 102760 39
2010-04-27 06:58:53 51°11.924 2°46.404 8 324 9.6 102760 39
2010-04-27 06:58:58 51°11.919 2°46.37 7.4 325 9.6 102760 39
2010-04-27 06:59:03 51°11.914 2°46.337 7.6 304 9.6 102760 39
2010-04-27 06:59:08 51°11.909 2°46.304 7.3 325 9.6 102760 40
2010-04-27 06:59:13 51°11.904 2°46.271 7.3 324 9.6 102760 40
2010-04-27 06:59:18 51°11.899 2°46.237 7.5 325 9.6 102760 42
2010-04-27 06:59:23 51°11.894 2°46.204 7.4 325 9.6 102760 42
2010-04-27 06:59:28 51°11.889 2°46.171 7.4 326 9.6 102760 41
2010-04-27 06:59:33 51°11.884 2°46.137 7.5 325 9.6 102760 41
2010-04-27 06:59:38 51°11.879 2°46.104 7.2 324 9.7 102760 41
2010-04-27 06:59:43 51°11.874 2°46.071 7.6 326 9.7 102760 41
2010-04-27 06:59:48 51°11.869 2°46.037 7.9 325 9.7 102760 42
2010-04-27 06:59:53 51°11.864 2°46.004 8 325 9.7 102760 42
2010-04-27 06:59:58 51°11.859 2°45.971 7.7 325 9.7 102760 40
2010-04-27 07:00:03 51°11.854 2°45.938 8.4 279 9.7 102760 40
2010-04-27 07:00:08 51°11.85 2°45.905 8.2 325 9.7 102760 41
2010-04-27 07:00:13 51°11.845 2°45.871 8.4 325 9.7 102760 41
2010-04-27 07:00:18 51°11.84 2°45.838 8.1 325 9.7 102760 38
2010-04-27 07:00:23 51°11.835 2°45.805 7.8 304 9.7 102760 38
2010-04-27 07:00:28 51°11.831 2°45.771 7.8 325 9.7 102770 40
2010-04-27 07:00:33 51°11.826 2°45.738 7.6 325 9.7 102770 40
2010-04-27 07:00:38 51°11.821 2°45.705 7.9 325 9.7 102760 42
2010-04-27 07:00:43 51°11.817 2°45.671 7.6 304 9.7 102760 42
2010-04-27 07:00:48 51°11.812 2°45.639 7.1 324 9.7 102770 39
2010-04-27 07:00:53 51°11.808 2°45.605 7.6 303 9.7 102770 39
2010-04-27 07:00:58 51°11.803 2°45.572 7.5 325 9.8 102760 39
2010-04-27 07:01:03 51°11.799 2°45.539 7.4 302 9.8 102760 39
2010-04-27 07:01:08 51°11.794 2°45.506 7.5 325 9.8 102760 40
2010-04-27 07:01:13 51°11.789 2°45.473 7.4 301 9.8 102760 40
2010-04-27 07:01:18 51°11.784 2°45.44 7.5 324 9.8 102760 39
2010-04-27 07:01:23 51°11.78 2°45.407 7.1 305 9.8 102760 39
2010-04-27 07:01:28 51°11.775 2°45.375 7.4 323 9.8 102760 40
2010-04-27 07:01:33 51°11.771 2°45.344 7.1 323 9.8 102760 40
2010-04-27 07:01:38 51°11.767 2°45.314 6.5 323 9.8 102770 39
2010-04-27 07:01:43 51°11.763 2°45.286 6.5 302 9.8 102770 39
2010-04-27 07:01:48 51°11.759 2°45.259 6 323 9.8 102760 39
2010-04-27 07:01:53 51°11.755 2°45.234 6.1 323 9.8 102760 39
2010-04-27 07:01:58 51°11.752 2°45.209 5.5 323 9.8 102770 42
2010-04-27 07:02:03 51°11.748 2°45.186 5.1 278 9.8 102770 42
2010-04-27 07:02:08 51°11.745 2°45.165 4.9 321 9.8 102770 39
2010-04-27 07:02:13 51°11.741 2°45.144 5.1 307 9.8 102770 39
2010-04-27 07:02:18 51°11.738 2°45.124 5 321 9.8 102770 39
2010-04-27 07:02:23 51°11.734 2°45.105 4.7 307 9.8 102770 39
2010-04-27 07:02:28 51°11.731 2°45.087 4.1 320 9.8 102770 42
2010-04-27 07:02:33 51°11.728 2°45.069 4.2 303 9.8 102770 42
2010-04-27 07:02:38 51°11.725 2°45.052 4.2 319 9.8 102770 39
2010-04-27 07:02:43 51°11.723 2°45.036 3.9 305 9.8 102770 39
2010-04-27 07:02:48 51°11.72 2°45.02 3.9 317 9.8 102770 41
2010-04-27 07:02:53 51°11.718 2°45.005 3.8 302 9.8 102770 41
2010-04-27 07:02:58 51°11.716 2°44.99 3.7 26 9.8 102780 41
2010-04-27 07:03:03 51°11.715 2°44.976 3.5 307 9.8 102780 41
2010-04-27 07:03:08 51°11.714 2°44.961 3.3 21 9.8 102770 43
2010-04-27 07:03:13 51°11.712 2°44.948 3.1 307 9.8 102770 43
2010-04-27 07:03:18 51°11.712 2°44.934 3.1 26 9.8 102780 42
2010-04-27 07:03:23 51°11.712 2°44.921 3.3 305 9.8 102780 42
2010-04-27 07:03:28 51°11.711 2°44.908 3.1 22 9.8 102780 40
2010-04-27 07:03:33 51°11.711 2°44.895 3 309 9.8 102780 40
2010-04-27 07:03:38 51°11.711 2°44.883 2.8 22 9.8 102780 43
2010-04-27 07:03:43 51°11.711 2°44.871 2.8 307 9.8 102780 43
2010-04-27 07:03:48 51°11.712 2°44.859 2.5 23 9.8 102780 41
2010-04-27 07:03:53 51°11.712 2°44.848 2.5 306 9.8 102780 41
2010-04-27 07:03:58 51°11.713 2°44.837 2.8 23 9.8 102780 39
2010-04-27 07:04:03 51°11.713 2°44.826 2.4 307 9.8 102780 39
2010-04-27 07:04:08 51°11.714 2°44.815 2.6 23 9.8 102790 42
2010-04-27 07:04:13 51°11.714 2°44.805 2.6 307 9.8 102790 42
2010-04-27 07:04:18 51°11.715 2°44.794 2.5 21 9.8 102780 39
2010-04-27 07:04:23 51°11.715 2°44.784 2.4 303 9.8 102780 39
2010-04-27 07:04:28 51°11.716 2°44.774 2.3 28 9.8 102790 40
2010-04-27 07:04:33 51°11.716 2°44.764 2.3 306 9.8 102790 40
2010-04-27 07:04:38 51°11.717 2°44.754 2.6 25 9.8 102790 39
2010-04-27 07:04:43 51°11.717 2°44.744 2.6 303 9.8 102790 39
2010-04-27 07:04:48 51°11.717 2°44.735 2.4 20 9.8 102790 43
2010-04-27 07:04:53 51°11.718 2°44.725 2.4 303 9.8 102790 43
2010-04-27 07:04:58 51°11.718 2°44.716 2.3 22 9.8 102790 39
2010-04-27 07:05:03 51°11.718 2°44.706 2.2 284 9.8 102790 39
2010-04-27 07:05:08 51°11.718 2°44.697 2.2 25 9.8 102790 41
2010-04-27 07:05:13 51°11.718 2°44.688 2.4 308 9.8 102790 41
2010-04-27 07:05:18 51°11.718 2°44.679 2.1 26 9.8 102790 40
2010-04-27 07:05:23 51°11.718 2°44.67 2.1 302 9.8 102790 40
2010-04-27 07:05:28 51°11.718 2°44.661 2.2 25 9.8 102790 39
2010-04-27 07:05:33 51°11.718 2°44.653 2.3 310 9.8 102790 39
2010-04-27 07:05:38 51°11.718 2°44.644 2.4 27 9.8 102790 37
2010-04-27 07:05:43 51°11.717 2°44.635 2.4 306 9.8 102790 37
2010-04-27 07:05:48 51°11.717 2°44.627 2.4 22 9.8 102790 39
2010-04-27 07:05:53 51°11.717 2°44.618 2.2 307 9.8 102790 39
2010-04-27 07:05:58 51°11.716 2°44.61 2.2 22 9.8 102790 40
2010-04-27 07:06:03 51°11.716 2°44.601 2.1 307 9.8 102790 40
2010-04-27 07:06:08 51°11.715 2°44.593 2.1 23 9.8 102790 43
2010-04-27 07:06:13 51°11.715 2°44.585 2 303 9.8 102790 43
2010-04-27 07:06:18 51°11.714 2°44.576 2.3 21 9.8 102790 43
2010-04-27 07:06:23 51°11.714 2°44.568 2.1 301 9.8 102790 43
2010-04-27 07:06:28 51°11.713 2°44.56 2.2 22 9.8 102790 43
2010-04-27 07:06:33 51°11.713 2°44.551 2.2 304 9.8 102790 43
2010-04-27 07:06:38 51°11.712 2°44.543 2.2 26 9.8 102790 43
2010-04-27 07:06:43 51°11.712 2°44.535 2.4 306 9.8 102790 43
2010-04-27 07:06:48 51°11.711 2°44.527 2.4 29 9.8 102790 43
2010-04-27 07:06:53 51°11.711 2°44.519 2.4 307 9.8 102790 43
2010-04-27 07:06:58 51°11.71 2°44.511 2.3 23 9.8 102790 42
2010-04-27 07:07:03 51°11.71 2°44.503 2.2 283 9.8 102790 42
2010-04-27 07:07:08 51°11.709 2°44.495 2.1 22 9.8 102790 39
2010-04-27 07:07:13 51°11.709 2°44.487 2 303 9.8 102790 39
2010-04-27 07:07:18 51°11.709 2°44.479 2 21 9.8 102790 43
2010-04-27 07:07:23 51°11.708 2°44.471 2 308 9.8 102790 43
2010-04-27 07:07:28 51°11.708 2°44.463 1.8 25 9.8 102790 40
2010-04-27 07:07:33 51°11.707 2°44.456 2.2 307 9.8 102790 40
2010-04-27 07:07:38 51°11.707 2°44.448 2.1 19 9.8 102790 38
2010-04-27 07:07:43 51°11.706 2°44.44 2.2 308 9.8 102790 38
2010-04-27 07:07:48 51°11.706 2°44.432 2.1 23 9.8 102790 39
2010-04-27 07:07:53 51°11.706 2°44.425 2.3 304 9.8 102790 39
2010-04-27 07:07:58 51°11.705 2°44.417 2 19 9.8 102790 39
2010-04-27 07:08:03 51°11.705 2°44.409 2 303 9.8 102790 39
2010-04-27 07:08:08 51°11.704 2°44.402 2 24 9.9 102790 42
2010-04-27 07:08:13 51°11.704 2°44.394 1.9 309 9.9 102790 42
2010-04-27 07:08:18 51°11.703 2°44.386 2 26 9.9 102790 42
2010-04-27 07:08:23 51°11.703 2°44.379 1.9 301 9.9 102790 42
2010-04-27 07:08:28 51°11.703 2°44.371 1.8 21 9.9 102790 40
2010-04-27 07:08:33 51°11.702 2°44.363 1.9 308 9.9 102790 40
2010-04-27 07:08:38 51°11.702 2°44.355 1.9 28 9.9 102790 38
2010-04-27 07:08:43 51°11.702 2°44.348 1.7 307 9.9 102790 38
2010-04-27 07:08:48 51°11.701 2°44.34 1.8 23 9.9 102790 38
2010-04-27 07:08:53 51°11.701 2°44.333 1.7 306 9.9 102790 38
2010-04-27 07:08:58 51°11.701 2°44.326 2.1 28 9.9 102790 40
2010-04-27 07:09:03 51°11.7 2°44.318 1.9 286 9.9 102790 40
2010-04-27 07:09:08 51°11.7 2°44.31 1.8 24 9.9 102790 39
2010-04-27 07:09:13 51°11.7 2°44.303 1.9 301 9.9 102790 39
2010-04-27 07:09:18 51°11.699 2°44.295 2 20 9.9 102790 39
2010-04-27 07:09:23 51°11.699 2°44.288 2 303 9.9 102790 39
2010-04-27 07:09:28 51°11.699 2°44.28 2.2 19 9.9 102790 38
2010-04-27 07:09:33 51°11.698 2°44.273 1.8 309 9.9 102790 38
2010-04-27 07:09:38 51°11.698 2°44.265 1.7 22 9.9 102790 39
2010-04-27 07:09:43 51°11.697 2°44.258 1.9 310 9.9 102790 39
2010-04-27 07:09:48 51°11.697 2°44.25 2.1 20 9.9 102790 38
2010-04-27 07:09:53 51°11.697 2°44.243 1.8 308 9.9 102790 38
2010-04-27 07:09:58 51°11.697 2°44.236 1.9 27 9.9 102790 41
2010-04-27 07:10:03 51°11.696 2°44.229 2.1 308 9.9 102790 41
2010-04-27 07:10:08 51°11.696 2°44.221 1.8 28 9.9 102790 41
2010-04-27 07:10:13 51°11.696 2°44.214 1.8 303 9.9 102790 41
2010-04-27 07:10:18 51°11.695 2°44.207 1.9 22 9.9 102790 39
2010-04-27 07:10:23 51°11.695 2°44.199 2.1 304 9.9 102790 39
2010-04-27 07:10:28 51°11.694 2°44.192 2.1 26 9.9 102790 38
2010-04-27 07:10:33 51°11.694 2°44.184 1.9 303 9.9 102790 38
2010-04-27 07:10:38 51°11.694 2°44.177 2.2 25 9.9 102790 43
2010-04-27 07:10:43 51°11.693 2°44.17 2.1 304 9.9 102790 43
2010-04-27 07:10:48 51°11.693 2°44.162 2.1 19 9.9 102790 41
2010-04-27 07:10:53 51°11.692 2°44.155 1.9 310 9.9 102790 41
2010-04-27 07:10:58 51°11.692 2°44.148 1.9 26 9.9 102790 41
2010-04-27 07:11:03 51°11.692 2°44.141 1.9 284 9.9 102790 41
2010-04-27 07:11:08 51°11.691 2°44.134 1.7 23 9.9 102790 42
2010-04-27 07:11:13 51°11.691 2°44.127 1.8 306 9.9 102790 42
2010-04-27 07:11:18 51°11.691 2°44.12 1.9 21 10 102790 39
2010-04-27 07:11:23 51°11.69 2°44.113 2.1 309 10 102790 39
2010-04-27 07:11:28 51°11.69 2°44.106 2 27 10 102790 38
2010-04-27 07:11:33 51°11.689 2°44.099 1.9 309 10 102790 38
2010-04-27 07:11:38 51°11.689 2°44.092 2 20 10 102790 42
2010-04-27 07:11:43 51°11.688 2°44.085 2.2 307 10 102790 42
2010-04-27 07:11:48 51°11.688 2°44.079 2.1 23 10 102790 41
2010-04-27 07:11:53 51°11.687 2°44.072 2 302 10 102790 41
2010-04-27 07:11:58 51°11.687 2°44.065 1.9 25 10 102790 39
2010-04-27 07:12:03 51°11.686 2°44.058 1.9 303 10 102790 39
2010-04-27 07:12:08 51°11.686 2°44.052 2 19 10 102790 38
2010-04-27 07:12:13 51°11.685 2°44.045 2 302 10 102790 38
2010-04-27 07:12:18 51°11.684 2°44.039 1.8 27 10 102790 40
2010-04-27 07:12:23 51°11.684 2°44.032 2 307 10 102790 40
2010-04-27 07:12:28 51°11.683 2°44.025 2 21 10 102790 39
2010-04-27 07:12:33 51°11.683 2°44.019 1.8 303 10 102790 39
2010-04-27 07:12:38 51°11.682 2°44.013 1.9 20 10 102800 38
2010-04-27 07:12:43 51°11.682 2°44.006 2 308 10 102800 38
2010-04-27 07:12:48 51°11.681 2°44 2 28 10 102790 39
2010-04-27 07:12:53 51°11.681 2°43.993 2 303 10 102790 39
2010-04-27 07:12:58 51°11.68 2°43.986 2.1 19 10 102800 42
2010-04-27 07:13:03 51°11.68 2°43.98 2.1 284 10 102800 42
2010-04-27 07:13:08 51°11.679 2°43.974 1.9 28 10 102790 42
2010-04-27 07:13:13 51°11.679 2°43.968 1.8 301 10 102790 42
2010-04-27 07:13:18 51°11.679 2°43.961 1.8 22 10 102790 39
2010-04-27 07:13:23 51°11.678 2°43.955 1.8 308 10 102790 39
2010-04-27 07:13:28 51°11.678 2°43.949 1.8 21 10.1 102790 39
2010-04-27 07:13:33 51°11.677 2°43.942 1.8 308 10.1 102790 39
2010-04-27 07:13:38 51°11.677 2°43.936 1.8 22 10.1 102800 38
2010-04-27 07:13:43 51°11.676 2°43.93 2.1 306 10.1 102800 38
2010-04-27 07:13:48 51°11.676 2°43.923 1.9 21 10.1 102800 39
2010-04-27 07:13:53 51°11.675 2°43.917 2.1 309 10.1 102800 39
2010-04-27 07:13:58 51°11.675 2°43.911 1.9 28 10.1 102800 39
2010-04-27 07:14:03 51°11.674 2°43.905 2.1 308 10.1 102800 39
2010-04-27 07:14:08 51°11.674 2°43.899 1.8 21 10.1 102800 42
2010-04-27 07:14:13 51°11.673 2°43.893 2.1 305 10.1 102800 42
2010-04-27 07:14:18 51°11.673 2°43.886 2 21 10.1 102800 38
2010-04-27 07:14:23 51°11.673 2°43.88 2 302 10.1 102800 38
2010-04-27 07:14:28 51°11.672 2°43.874 2 20 10.1 102800 38
2010-04-27 07:14:33 51°11.672 2°43.868 2.1 302 10.1 102800 38
2010-04-27 07:14:38 51°11.671 2°43.862 2 27 10.1 102800 42
2010-04-27 07:14:43 51°11.671 2°43.856 2 309 10.1 102800 42
2010-04-27 07:14:48 51°11.67 2°43.85 1.9 25 10.1 102800 39
2010-04-27 07:14:53 51°11.67 2°43.844 1.9 306 10.1 102800 39
2010-04-27 07:14:58 51°11.67 2°43.838 1.9 22 10.1 102800 39